This demonstration page uses our WeatherBlox Daily Observations layout. Learn more.

Left ArrowRight Arrow

39.51506, -84.39828

Hourly Observations for January 17, 2022

Temp ( °F °C ) Dew Point ( °F °C ) Humidity (%) Winds ( mph kmh ) Pressure ( in mb ) Visibility ( mi km ) Precip ( " mm )
12:15 am 00:15 Cloudy 29 -1.5 23 -5.1 77 77 N 8 13 29.59 1002 10 16 0.00 0.00
12:35 am 00:35 Cloudy 28 -2 22 -5.8 76 76 N 8 13 29.58 1002 10 16 0.00 0.00
12:55 am 00:55 Mostly Cloudy 28 -2.3 20 -6.5 73 73 NNW 9 15 29.57 1001 10 16 0.00 0.00
1:15 am 01:15 Partly Cloudy 27 -2.6 20 -6.9 73 73 N 8 13 29.57 1001 10 16 0.00 0.00
1:35 am 01:35 Clear 27 -2.9 19 -7.4 71 71 NNW 14 22 29.56 1001 10 16 0.00 0.00
1:55 am 01:55 Clear 26 -3.2 18 -7.9 70 70 N 16 26 29.56 1001 10 16 0.00 0.00
2:15 am 02:15 Clear 26 -3.4 17 -8.3 69 69 N 14 22 29.56 1001 10 16 0.00 0.00
2:35 am 02:35 Clear 26 -3.4 16 -8.8 67 67 N 12 19 29.57 1001 10 16 0.00 0.00
2:55 am 02:55 Clear 26 -3.4 16 -9 66 66 NNW 12 19 29.58 1002 10 16 0.00 0.00
3:15 am 03:15 Clear 26 -3.3 16 -8.8 66 66 N 10 17 29.59 1002 10 16 0.00 0.00
3:35 am 03:35 Clear 26 -3.2 16 -8.7 66 66 N 9 15 29.59 1002 10 16 0.00 0.00
3:55 am 03:55 Partly Cloudy 26 -3.3 17 -8.5 68 68 NNW 12 19 29.60 1002 10 16 0.00 0.00
4:15 am 04:15 Mostly Cloudy 26 -3.3 17 -8.3 69 69 NNW 13 20 29.60 1002 10 16 0.00 0.00
4:35 am 04:35 Cloudy 26 -3.3 16 -8.7 67 67 NNW 16 26 29.61 1003 10 16 0.00 0.00
4:55 am 04:55 Cloudy 26 -3.2 15 -9.4 63 63 NNW 12 19 29.62 1003 10 16 0.00 0.00
5:15 am 05:15 Cloudy 26 -3.3 13 -10.4 58 58 NNW 14 22 29.63 1004 10 16 0.00 0.00
5:35 am 05:35 Cloudy 26 -3.3 11 -11.4 54 54 NW 12 19 29.64 1004 10 16 0.00 0.00
5:55 am 05:55 Cloudy 26 -3.3 13 -10.7 57 57 NNW 12 19 29.65 1004 10 16 0.00 0.00
6:15 am 06:15 Cloudy 26 -3.1 15 -9.2 63 63 NNW 10 17 29.66 1005 10 16 0.00 0.00
6:35 am 06:35 Cloudy 26 -3.1 17 -8.3 68 68 NNW 14 22 29.67 1005 10 16 0.00 0.00
6:55 am 06:55 Cloudy 26 -3.1 18 -8 69 69 NNW 13 20 29.69 1006 10 16 0.00 0.00
7:15 am 07:15 Cloudy 26 -3.1 18 -8 69 69 NW 12 19 29.70 1006 10 16 0.00 0.00
7:35 am 07:35 Cloudy 26 -3.4 18 -7.8 72 72 NW 10 17 29.70 1006 10 16 0.00 0.00
7:55 am 07:55 Cloudy 26 -3.5 19 -7.5 74 74 WNW 9 15 29.71 1006 10 16 0.00 0.00
8:15 am 08:15 Cloudy 26 -3.5 19 -7 77 77 NW 9 15 29.72 1007 10 16 0.00 0.00
8:35 am 08:35 Cloudy 26 -3.4 20 -6.4 80 80 NW 12 19 29.72 1007 10 16 0.00 0.00
8:55 am 08:55 Cloudy with Light Snow 26 -3.2 22 -5.7 83 83 NW 12 19 29.73 1007 7 11 0.00 0.00
9:15 am 09:15 Cloudy with Light Snow 26 -3.2 23 -5.1 87 87 NW 10 17 29.74 1007 5 8 0.00 0.00
9:35 am 09:35 Cloudy with Light Snow 26 -3.1 23 -5 87 87 NNW 14 22 29.75 1008 5 8 0.00 0.00
9:55 am 09:55 Cloudy with Light Snow 27 -3 23 -4.9 87 87 NW 13 20 29.76 1008 7 11 0.00 0.00
10:15 am 10:15 Cloudy with Light Snow 27 -3 23 -5.1 86 86 NW 15 24 29.77 1008 7 11 0.00 0.00
10:35 am 10:35 Cloudy with Light Snow 27 -3 22 -5.4 84 84 NW 12 19 29.78 1009 7 11 0.00 0.00
10:55 am 10:55 Cloudy with Light Snow 27 -2.9 22 -5.7 81 81 NW 16 26 29.79 1009 7 11 0.00 0.00
11:15 am 11:15 Cloudy 27 -2.9 21 -5.9 80 80 NW 14 22 29.79 1009 7 11 0.00 0.00
11:35 am 11:35 Cloudy with Haze 27 -2.8 21 -6 79 79 NW 16 26 29.80 1009 7 11 0.00 0.00
11:55 am 11:55 Cloudy with Haze 27 -3 22 -5.7 82 82 NW 20 31 29.80 1009 7 11 0.00 0.00
12:15 pm 12:15 Cloudy with Mist and Fog 26 -3.2 22 -5.6 84 84 WNW 15 24 29.81 1010 5 8 0.00 0.00
12:35 pm 12:35 Cloudy with Mist and Fog 26 -3.2 22 -5.5 84 84 NW 13 20 29.81 1010 4 6 0.00 0.00
12:55 pm 12:55 Cloudy with Mist and Fog 26 -3.2 22 -5.5 84 84 NW 12 19 29.82 1010 4 6 0.00 0.00
1:15 pm 13:15 Cloudy with Mist and Fog 26 -3.2 22 -5.7 83 83 NW 16 26 29.81 1010 5 8 0.00 0.00
1:35 pm 13:35 Cloudy with Mist and Fog 26 -3.2 22 -5.5 84 84 NW 16 26 29.82 1010 5 8 0.00 0.00
1:55 pm 13:55 Cloudy with Mist and Fog 26 -3.2 23 -5.2 86 86 NW 17 28 29.82 1010 4 6 0.00 0.00
2:15 pm 14:15 Cloudy with Mist and Fog 26 -3.2 23 -5 88 88 NW 16 26 29.83 1010 4 6 0.00 0.00
2:35 pm 14:35 Cloudy with Mist and Fog 26 -3.1 23 -4.9 88 88 NW 14 22 29.84 1011 4 6 0.00 0.00
2:55 pm 14:55 Cloudy with Mist and Fog 27 -2.9 23 -5 86 86 NW 14 22 29.85 1011 5 8 0.00 0.00
3:15 pm 15:15 Cloudy with Mist and Fog 27 -2.7 23 -5.1 84 84 NW 15 24 29.86 1011 5 8 0.00 0.00
3:35 pm 15:35 Cloudy with Mist and Fog 27 -2.6 23 -5.1 83 83 NW 15 24 29.87 1012 7 11 0.00 0.00
3:55 pm 15:55 Cloudy 27 -2.6 22 -5.3 82 82 WNW 10 17 29.87 1012 7 11 0.00 0.00
4:15 pm 16:15 Cloudy 28 -2.5 22 -5.4 81 81 NW 13 20 29.88 1012 7 11 0.00 0.00
4:35 pm 16:35 Cloudy 28 -2.5 22 -5.6 80 80 WNW 13 20 29.90 1013 7 11 0.00 0.00
4:55 pm 16:55 Cloudy 28 -2.5 22 -5.7 79 79 NW 13 20 29.91 1013 10 16 0.00 0.00
5:15 pm 17:15 Cloudy 28 -2.5 21 -5.9 78 78 WNW 14 22 29.92 1013 10 16 0.00 0.00
5:35 pm 17:35 Cloudy 27 -2.6 21 -5.9 78 78 WNW 13 20 29.92 1013 10 16 0.00 0.00
5:55 pm 17:55 Cloudy 28 -2.5 21 -6.1 77 77 WNW 10 17 29.93 1014 10 16 0.00 0.00
6:15 pm 18:15 Cloudy 28 -2.5 21 -6.1 77 77 WNW 15 24 29.94 1014 10 16 0.00 0.00
6:35 pm 18:35 Cloudy 28 -2.5 21 -6.1 77 77 WNW 12 19 29.95 1014 10 16 0.00 0.00
6:55 pm 18:55 Cloudy 28 -2.5 21 -6.2 76 76 WNW 9 15 29.96 1015 10 16 0.00 0.00
7:15 pm 19:15 Cloudy 28 -2.5 21 -6.3 75 75 WNW 12 19 29.97 1015 10 16 0.00 0.00
7:35 pm 19:35 Cloudy 28 -2.5 21 -6.3 75 75 WNW 12 19 29.97 1015 10 16 0.00 0.00
7:55 pm 19:55 Cloudy 28 -2.5 21 -6.3 75 75 WNW 10 17 29.98 1015 10 16 0.00 0.00
8:15 pm 20:15 Cloudy 28 -2.4 21 -6.2 75 75 WNW 10 17 29.99 1016 10 16 0.00 0.00
8:35 pm 20:35 Cloudy 28 -2.3 21 -6.2 75 75 WNW 9 15 30.00 1016 10 16 0.00 0.00
8:55 pm 20:55 Cloudy 28 -2.3 21 -6.3 74 74 WNW 8 13 30.02 1017 10 16 0.00 0.00
9:15 pm 21:15 Cloudy 28 -2.4 20 -6.4 74 74 WNW 9 15 30.02 1017 10 16 0.00 0.00
9:35 pm 21:35 Cloudy 28 -2.4 20 -6.6 73 73 WNW 7 11 30.02 1017 10 16 0.00 0.00
9:55 pm 21:55 Cloudy 28 -2.4 20 -6.5 74 74 WNW 8 13 30.03 1017 10 16 0.00 0.00
10:15 pm 22:15 Cloudy 28 -2.4 20 -6.6 73 73 NW 9 15 30.04 1017 10 16 0.00 0.00
10:35 pm 22:35 Cloudy 28 -2.5 20 -6.8 73 73 WNW 12 19 30.05 1018 10 16 0.00 0.00
10:55 pm 22:55 Cloudy 28 -2.5 19 -7.3 70 70 WNW 9 15 30.05 1018 10 16 0.00 0.00
11:15 pm 23:15 Cloudy 27 -2.7 18 -7.7 69 69 WNW 13 20 30.06 1018 10 16 0.00 0.00
11:35 pm 23:35 Cloudy 27 -2.9 17 -8.1 68 68 NW 9 15 30.06 1018 10 16 0.00 0.00
11:55 pm 23:55 Cloudy 27 -2.9 18 -7.8 69 69 WNW 7 11 30.06 1018 10 16 0.00 0.00

Powered by AerisWeather